Location: Bathsheba
(13.2167°N, 59.5167°W)
Time: 23:39:10
(UTC+00:00)

Cosmos 1174 - Pass Details

Date: 18 September 2020
Orbit: 362 x 1155 km, 66.1° (Epoch: 20 October)

Event Time Altitude Azimuth Distance (km) Brightness Sun altitude
Rises 22:33:45 0° 197° (SSW) 2,445 7.3 -9.9°
Reaches altitude 10° 22:35:39 10° 195° (SSW) 1,658 6.4 -10.3°
Maximum altitude 22:39:18 72° 110° (ESE) 588 3.7 -11.2°
Drops below altitude 10° 22:43:55 10° 26° (NNE) 2,088 6.6 -12.3°
Sets 22:46:33 0° 24° (NNE) 3,151 7.5 -13.0°
